CYP733 LCLK-LGAV

Flight info

Callsign CYP733
Flight time 1h 26m
Altitude 30000
Route PHA M31 GENOS DCT PEDER DCT EVENO UM601 RDS UL995 VARIX
Aircraft A320/M-SDE2GHIJ1RTWY/LB1

Departure

Time 2026-05-04 17:30
Airport Larnaca International Airport (LCLK)

Arrival

Time 2026-05-04 18:57
Airport Athens Eleftherios Venizelos International Airport (LGAV)
Time Latitude Longitude Altitude Speed Heading
2026-05-04 16:58 34.86908 33.60897 25 ft 0 kts 45°
2026-05-04 17:14 34.86904 33.60892 20 ft 4 kts 46°
2026-05-04 17:15 34.86887 33.60867 24 ft 4 kts 50°
2026-05-04 17:15 34.86865 33.60830 25 ft 4 kts 85°
2026-05-04 17:16 34.86867 33.60808 24 ft 0 kts 115°
2026-05-04 17:18 34.86866 33.60812 24 ft 1 kts 115°
2026-05-04 17:18 34.86730 33.60971 20 ft 23 kts 136°
2026-05-04 17:19 34.86677 33.61181 21 ft 14 kts 46°
2026-05-04 17:19 34.86850 33.61391 18 ft 20 kts 45°
2026-05-04 17:20 34.87062 33.61647 21 ft 22 kts 44°
2026-05-04 17:20 34.87299 33.61940 22 ft 26 kts 45°
2026-05-04 17:20 34.87436 33.62107 19 ft 29 kts 45°
2026-05-04 17:21 34.87707 33.62439 18 ft 21 kts 44°
2026-05-04 17:21 34.87931 33.62716 21 ft 24 kts 44°
2026-05-04 17:22 34.88058 33.62866 21 ft 26 kts 45°
2026-05-04 17:22 34.88162 33.62994 19 ft 21 kts 45°
2026-05-04 17:23 34.88406 33.63291 17 ft 5 kts 45°
2026-05-04 17:23 34.88416 33.63303 17 ft 0 kts 45°
2026-05-04 17:23 34.88429 33.63319 18 ft 2 kts 44°
2026-05-04 17:24 34.88440 33.63332 18 ft 2 kts 46°
2026-05-04 17:24 34.88446 33.63364 18 ft 1 kts 100°
2026-05-04 17:25 34.88446 33.63365 18 ft 0 kts 102°
2026-05-04 17:26 34.88441 33.63378 19 ft 3 kts 116°
2026-05-04 17:26 34.88405 33.63430 21 ft 0 kts 134°
2026-05-04 17:27 34.88405 33.63431 21 ft 0 kts 134°
2026-05-04 17:27 34.88385 33.63455 19 ft 4 kts 135°
2026-05-04 17:28 34.88310 33.63517 17 ft 8 kts 182°
2026-05-04 17:29 34.88259 33.63471 16 ft 2 kts 225°
2026-05-04 17:29 34.87656 33.62735 19 ft 117 kts 225°
2026-05-04 17:30 34.85464 33.59960 1193 ft 159 kts 230°
2026-05-04 17:31 34.83898 33.57917 2105 ft 181 kts 230°
2026-05-04 17:31 34.80805 33.53902 3087 ft 250 kts 230°
2026-05-04 17:32 34.78358 33.50772 4831 ft 258 kts 230°
2026-05-04 17:33 34.74567 33.45938 7427 ft 267 kts 230°
2026-05-04 17:33 34.73283 33.44301 8274 ft 269 kts 230°
2026-05-04 17:34 34.69455 33.39142 10374 ft 287 kts 242°
2026-05-04 17:34 34.68601 33.36872 10538 ft 307 kts 254°
2026-05-04 17:35 34.68283 33.28677 11903 ft 334 kts 273°
2026-05-04 17:35 34.68504 33.22980 13243 ft 340 kts 272°
2026-05-04 17:35 34.68611 33.20097 13900 ft 343 kts 272°
2026-05-04 17:36 34.68721 33.17189 14486 ft 346 kts 273°
2026-05-04 17:36 34.68835 33.14268 15044 ft 348 kts 273°
2026-05-04 17:36 34.68951 33.11308 15580 ft 351 kts 273°
2026-05-04 17:36 34.69070 33.08334 16114 ft 355 kts 273°
2026-05-04 17:37 34.69189 33.05326 16670 ft 357 kts 273°
2026-05-04 17:37 34.69306 33.02296 17227 ft 360 kts 273°
2026-05-04 17:37 34.69423 32.99241 17776 ft 363 kts 273°
2026-05-04 17:37 34.69539 32.96160 18309 ft 366 kts 273°
2026-05-04 17:38 34.69654 32.93054 18810 ft 369 kts 273°
2026-05-04 17:38 34.69771 32.89926 19322 ft 372 kts 273°
2026-05-04 17:38 34.69889 32.86774 19815 ft 375 kts 273°
2026-05-04 17:38 34.70009 32.83598 20306 ft 377 kts 273°
2026-05-04 17:39 34.70242 32.77191 21248 ft 382 kts 273°
2026-05-04 17:39 34.70356 32.73949 21692 ft 385 kts 273°
2026-05-04 17:39 34.70469 32.70686 22133 ft 387 kts 272°
2026-05-04 17:40 34.70584 32.67402 22571 ft 390 kts 272°
2026-05-04 17:40 34.70704 32.64053 23002 ft 393 kts 272°
2026-05-04 17:40 34.70822 32.60779 23412 ft 395 kts 272°
2026-05-04 17:40 34.70942 32.57426 23755 ft 398 kts 272°
2026-05-04 17:41 34.71060 32.54051 24108 ft 401 kts 272°
2026-05-04 17:41 34.71159 32.50658 24461 ft 402 kts 270°
2026-05-04 17:41 34.71013 32.47207 24815 ft 404 kts 267°
2026-05-04 17:41 34.70835 32.43790 25170 ft 406 kts 267°
2026-05-04 17:42 34.70656 32.40395 25523 ft 408 kts 266°
2026-05-04 17:42 34.70470 32.36959 25866 ft 409 kts 266°
2026-05-04 17:42 34.70293 32.33502 26260 ft 410 kts 269°
2026-05-04 17:42 34.70590 32.30061 26606 ft 412 kts 284°
2026-05-04 17:43 34.71697 32.26845 26932 ft 416 kts 298°
2026-05-04 17:43 34.73212 32.23833 27284 ft 418 kts 299°
2026-05-04 17:43 34.74742 32.20825 27728 ft 417 kts 299°
2026-05-04 17:43 34.76268 32.17833 28294 ft 415 kts 299°
2026-05-04 17:44 34.77788 32.14846 28719 ft 416 kts 299°
2026-05-04 17:44 34.79312 32.11844 29453 ft 409 kts 299°
2026-05-04 17:44 34.80796 32.08917 30094 ft 404 kts 299°
2026-05-04 17:44 34.82264 32.06012 30585 ft 402 kts 299°
2026-05-04 17:45 34.83706 32.03154 31019 ft 401 kts 299°
2026-05-04 17:45 34.85161 32.00268 31482 ft 399 kts 299°
2026-05-04 17:45 34.86612 31.97391 31838 ft 398 kts 299°
2026-05-04 17:45 34.88060 31.94521 31909 ft 397 kts 299°
2026-05-04 17:46 34.90961 31.88757 31917 ft 401 kts 299°
2026-05-04 17:46 34.93937 31.82820 31919 ft 417 kts 299°
2026-05-04 17:47 34.96980 31.76754 31930 ft 422 kts 299°
2026-05-04 17:47 35.00047 31.70635 31933 ft 423 kts 299°
2026-05-04 17:48 35.02598 31.65541 31919 ft 423 kts 299°
2026-05-04 17:48 35.05656 31.59415 31917 ft 423 kts 299°
2026-05-04 17:49 35.08706 31.53283 31919 ft 423 kts 299°
2026-05-04 17:49 35.11770 31.47120 31910 ft 423 kts 300°
2026-05-04 17:50 35.14827 31.40958 31910 ft 424 kts 300°
2026-05-04 17:50 35.17882 31.34783 31912 ft 424 kts 300°
2026-05-04 17:51 35.20943 31.28603 31914 ft 425 kts 300°
2026-05-04 17:51 35.23999 31.22426 31916 ft 425 kts 300°
2026-05-04 17:52 35.27052 31.16223 31910 ft 426 kts 300°
2026-05-04 17:52 35.30103 31.10016 31911 ft 426 kts 300°
2026-05-04 17:53 35.33160 31.03798 31905 ft 427 kts 300°
2026-05-04 17:53 35.36245 30.97521 31906 ft 427 kts 300°
2026-05-04 17:54 35.39308 30.91273 31903 ft 428 kts 301°
2026-05-04 17:54 35.42360 30.85014 31902 ft 428 kts 301°
2026-05-04 17:55 35.45418 30.78737 31903 ft 429 kts 301°
2026-05-04 17:55 35.48479 30.72453 31901 ft 429 kts 301°
2026-05-04 17:56 35.51539 30.66161 31903 ft 429 kts 301°
2026-05-04 17:56 35.54589 30.59870 31904 ft 429 kts 301°
2026-05-04 17:57 35.57638 30.53563 31907 ft 429 kts 300°
2026-05-04 17:57 35.60688 30.47253 31907 ft 429 kts 300°
2026-05-04 17:58 35.63734 30.40949 31911 ft 429 kts 300°
2026-05-04 17:58 35.66775 30.34625 31899 ft 430 kts 301°
2026-05-04 17:59 35.69816 30.28288 31902 ft 430 kts 301°
2026-05-04 18:00 35.74377 30.18777 31903 ft 430 kts 301°
2026-05-04 18:00 35.77419 30.12422 31905 ft 431 kts 301°
2026-05-04 18:01 35.80449 30.06063 31932 ft 430 kts 301°
2026-05-04 18:01 35.83365 29.99623 31898 ft 432 kts 294°
2026-05-04 18:02 35.86298 29.89071 31896 ft 435 kts 289°
2026-05-04 18:02 35.88226 29.81958 31889 ft 435 kts 290°
2026-05-04 18:03 35.90155 29.74877 31897 ft 436 kts 290°
2026-05-04 18:03 35.92058 29.67827 31908 ft 436 kts 290°
2026-05-04 18:04 35.93968 29.60723 31925 ft 436 kts 290°
2026-05-04 18:05 35.96833 29.50021 31918 ft 436 kts 290°
2026-05-04 18:05 35.98743 29.42914 31934 ft 436 kts 290°
2026-05-04 18:06 36.01598 29.32287 31958 ft 434 kts 290°
2026-05-04 18:06 36.03495 29.25197 31954 ft 434 kts 290°
2026-05-04 18:07 36.05390 29.18108 31942 ft 435 kts 290°
2026-05-04 18:07 36.07281 29.11006 31963 ft 435 kts 290°
2026-05-04 18:08 36.09163 29.03884 31954 ft 435 kts 290°
2026-05-04 18:08 36.11046 28.96755 31965 ft 437 kts 290°
2026-05-04 18:09 36.14803 28.82476 31979 ft 436 kts 290°
2026-05-04 18:10 36.16684 28.75330 31982 ft 437 kts 290°
2026-05-04 18:10 36.18560 28.68164 31983 ft 437 kts 290°
2026-05-04 18:11 36.20422 28.61001 31985 ft 437 kts 290°
2026-05-04 18:11 36.22279 28.53834 31997 ft 437 kts 290°
2026-05-04 18:12 36.24135 28.46666 31992 ft 437 kts 290°
2026-05-04 18:12 36.25991 28.39493 32000 ft 437 kts 290°
2026-05-04 18:13 36.27833 28.32329 31989 ft 437 kts 290°
2026-05-04 18:14 36.30594 28.21534 31992 ft 439 kts 290°
2026-05-04 18:14 36.32431 28.14321 32002 ft 439 kts 290°
2026-05-04 18:15 36.36873 28.00198 31979 ft 438 kts 297°
2026-05-04 18:16 36.39351 27.93306 31987 ft 438 kts 297°
2026-05-04 18:16 36.41825 27.86397 31997 ft 438 kts 296°
2026-05-04 18:17 36.45516 27.76029 32011 ft 438 kts 296°
2026-05-04 18:18 36.49210 27.65657 32031 ft 438 kts 296°
2026-05-04 18:18 36.51667 27.58727 32040 ft 438 kts 296°
2026-05-04 18:19 36.55351 27.48328 32041 ft 438 kts 296°
2026-05-04 18:19 36.57799 27.41376 32039 ft 438 kts 297°
2026-05-04 18:20 36.60238 27.34438 32052 ft 438 kts 297°
2026-05-04 18:20 36.62685 27.27489 32053 ft 438 kts 297°
2026-05-04 18:21 36.65115 27.20572 32056 ft 438 kts 297°
2026-05-04 18:21 36.67155 27.14740 32027 ft 438 kts 297°
2026-05-04 18:22 36.69583 27.07781 32038 ft 438 kts 297°
2026-05-04 18:22 36.72004 27.00816 32040 ft 438 kts 297°
2026-05-04 18:23 36.74427 26.93830 32048 ft 439 kts 297°
2026-05-04 18:23 36.76842 26.86849 32028 ft 438 kts 296°
2026-05-04 18:24 36.79255 26.79858 32046 ft 439 kts 296°
2026-05-04 18:24 36.81654 26.72866 32061 ft 439 kts 296°
2026-05-04 18:25 36.84056 26.65861 32070 ft 439 kts 296°
2026-05-04 18:25 36.86475 26.58813 32079 ft 439 kts 296°
2026-05-04 18:26 36.88865 26.51850 32072 ft 439 kts 296°
2026-05-04 18:26 36.91258 26.44830 32093 ft 439 kts 296°
2026-05-04 18:27 36.93657 26.37766 32098 ft 439 kts 296°
2026-05-04 18:27 36.96046 26.30738 32097 ft 439 kts 296°
2026-05-04 18:28 36.98423 26.23701 32077 ft 439 kts 296°
2026-05-04 18:28 37.00806 26.16665 32079 ft 439 kts 296°
2026-05-04 18:29 37.03201 26.09628 32090 ft 439 kts 296°
2026-05-04 18:29 37.05589 26.02581 32086 ft 440 kts 296°
2026-05-04 18:30 37.09169 25.91961 32075 ft 441 kts 296°
2026-05-04 18:31 37.11549 25.84871 32093 ft 442 kts 296°
2026-05-04 18:31 37.13932 25.77753 32097 ft 443 kts 296°
2026-05-04 18:32 37.16309 25.70639 32102 ft 443 kts 296°
2026-05-04 18:32 37.18663 25.63592 31749 ft 429 kts 296°
2026-05-04 18:32 37.19799 25.60177 31505 ft 423 kts 296°
2026-05-04 18:33 37.20942 25.56742 31258 ft 434 kts 296°
2026-05-04 18:33 37.22132 25.53180 30923 ft 450 kts 295°
2026-05-04 18:33 37.23352 25.49524 30342 ft 457 kts 295°
2026-05-04 18:33 37.24571 25.45797 29720 ft 463 kts 295°
2026-05-04 18:34 37.25763 25.42076 29158 ft 465 kts 294°
2026-05-04 18:34 37.26956 25.38306 28596 ft 463 kts 294°
2026-05-04 18:34 37.28136 25.34495 28014 ft 463 kts 293°
2026-05-04 18:34 37.29223 25.30681 27462 ft 464 kts 291°
2026-05-04 18:35 37.30248 25.26834 26923 ft 463 kts 290°
2026-05-04 18:35 37.31236 25.22988 26380 ft 462 kts 290°
2026-05-04 18:35 37.32220 25.19144 25855 ft 462 kts 290°
2026-05-04 18:35 37.33213 25.15315 25343 ft 463 kts 291°
2026-05-04 18:36 37.34223 25.11476 24860 ft 461 kts 291°
2026-05-04 18:36 37.35244 25.07642 24325 ft 463 kts 291°
2026-05-04 18:36 37.36276 25.03795 23806 ft 465 kts 291°
2026-05-04 18:36 37.37309 24.99950 23203 ft 466 kts 291°
2026-05-04 18:37 37.38336 24.96112 22761 ft 455 kts 290°
2026-05-04 18:37 37.39313 24.92428 22601 ft 430 kts 290°
2026-05-04 18:37 37.40219 24.88988 22404 ft 399 kts 291°
2026-05-04 18:37 37.41064 24.85780 22159 ft 376 kts 291°
2026-05-04 18:38 37.41875 24.82713 21512 ft 365 kts 291°
2026-05-04 18:38 37.42677 24.79682 20749 ft 358 kts 291°
2026-05-04 18:38 37.43459 24.76729 19967 ft 353 kts 291°
2026-05-04 18:38 37.44230 24.73816 19329 ft 348 kts 291°
2026-05-04 18:39 37.44986 24.70957 18877 ft 349 kts 291°
2026-05-04 18:39 37.45748 24.68066 18425 ft 347 kts 291°
2026-05-04 18:39 37.46512 24.65163 17923 ft 344 kts 291°
2026-05-04 18:39 37.47251 24.62336 17275 ft 335 kts 291°
2026-05-04 18:40 37.47968 24.59591 16683 ft 326 kts 291°
2026-05-04 18:40 37.48658 24.56953 16103 ft 324 kts 291°
2026-05-04 18:40 37.49374 24.54217 15740 ft 321 kts 291°
2026-05-04 18:40 37.50070 24.51565 15363 ft 319 kts 292°
2026-05-04 18:41 37.50759 24.48920 14992 ft 317 kts 291°
2026-05-04 18:41 37.51431 24.46292 14518 ft 313 kts 291°
2026-05-04 18:41 37.52093 24.43691 13850 ft 311 kts 291°
2026-05-04 18:41 37.52746 24.41118 13215 ft 305 kts 291°
2026-05-04 18:42 37.53376 24.38614 12756 ft 295 kts 291°
2026-05-04 18:42 37.53992 24.36165 12166 ft 291 kts 291°
2026-05-04 18:42 37.54606 24.33746 11583 ft 288 kts 291°
2026-05-04 18:42 37.55211 24.31357 11019 ft 284 kts 291°
2026-05-04 18:43 37.55805 24.29005 10470 ft 280 kts 291°
2026-05-04 18:43 37.56390 24.26675 9922 ft 277 kts 291°
2026-05-04 18:43 37.56967 24.24375 9319 ft 273 kts 291°
2026-05-04 18:43 37.57540 24.22070 8721 ft 270 kts 291°
2026-05-04 18:44 37.58093 24.19824 8171 ft 267 kts 291°
2026-05-04 18:44 37.58268 24.19103 8097 ft 264 kts 291°
2026-05-04 18:44 37.59098 24.15328 8009 ft 271 kts 281°
2026-05-04 18:44 37.59193 24.12957 8009 ft 266 kts 276°
2026-05-04 18:45 37.59211 24.10686 8010 ft 253 kts 275°
2026-05-04 18:45 37.59214 24.08519 8016 ft 243 kts 275°
2026-05-04 18:45 37.59212 24.06397 8004 ft 242 kts 275°
2026-05-04 18:45 37.59210 24.04282 8012 ft 242 kts 275°
2026-05-04 18:46 37.59208 24.02156 8015 ft 242 kts 275°
2026-05-04 18:46 37.59206 24.00039 8020 ft 242 kts 275°
2026-05-04 18:46 37.59206 23.97916 8015 ft 242 kts 275°
2026-05-04 18:46 37.59204 23.95795 8012 ft 242 kts 275°
2026-05-04 18:47 37.59203 23.93674 7967 ft 241 kts 275°
2026-05-04 18:47 37.59398 23.91616 7684 ft 233 kts 291°
2026-05-04 18:47 37.59911 23.89692 7395 ft 231 kts 295°
2026-05-04 18:47 37.60466 23.87794 7119 ft 230 kts 295°
2026-05-04 18:48 37.61021 23.85906 6851 ft 229 kts 295°
2026-05-04 18:48 37.61571 23.84026 6581 ft 228 kts 295°
2026-05-04 18:48 37.62115 23.82153 6301 ft 227 kts 295°
2026-05-04 18:48 37.62655 23.80295 6064 ft 224 kts 295°
2026-05-04 18:49 37.63198 23.78445 6013 ft 225 kts 295°
2026-05-04 18:49 37.63776 23.76605 6010 ft 224 kts 304°
2026-05-04 18:49 37.64837 23.75265 6014 ft 216 kts 336°
2026-05-04 18:49 37.66284 23.74795 5854 ft 216 kts 353°
2026-05-04 18:50 37.67791 23.74620 5595 ft 214 kts 355°
2026-05-04 18:50 37.69276 23.74486 5342 ft 213 kts 355°
2026-05-04 18:50 37.70748 23.74358 5083 ft 210 kts 355°
2026-05-04 18:50 37.72203 23.74338 4841 ft 208 kts
2026-05-04 18:51 37.73621 23.74662 4577 ft 207 kts 17°
2026-05-04 18:51 37.74885 23.75530 4333 ft 208 kts 33°
2026-05-04 18:51 37.76016 23.76602 4224 ft 200 kts 33°
2026-05-04 18:51 37.77128 23.77652 3998 ft 198 kts 33°
2026-05-04 18:52 37.78221 23.78686 3768 ft 192 kts 34°
2026-05-04 18:52 37.79254 23.79665 3504 ft 180 kts 33°
2026-05-04 18:52 37.80222 23.80581 3259 ft 169 kts 33°
2026-05-04 18:52 37.80836 23.81161 3117 ft 164 kts 33°
2026-05-04 18:53 37.81739 23.82014 2898 ft 161 kts 33°
2026-05-04 18:53 37.82635 23.82862 2686 ft 161 kts 33°
2026-05-04 18:53 37.83531 23.83710 2464 ft 160 kts 34°
2026-05-04 18:53 37.84426 23.84558 2247 ft 161 kts 34°
2026-05-04 18:54 37.85336 23.85420 2029 ft 161 kts 35°
2026-05-04 18:54 37.86223 23.86261 1810 ft 156 kts 35°
2026-05-04 18:54 37.87070 23.87065 1612 ft 149 kts 36°
2026-05-04 18:54 37.87882 23.87835 1427 ft 144 kts 36°
2026-05-04 18:55 37.88678 23.88590 1212 ft 142 kts 36°
2026-05-04 18:55 37.90257 23.90088 823 ft 141 kts 36°
2026-05-04 18:55 37.91043 23.90834 641 ft 141 kts 36°
2026-05-04 18:56 37.91826 23.91578 451 ft 140 kts 36°
2026-05-04 18:56 37.92601 23.92323 310 ft 140 kts 37°
2026-05-04 18:56 37.93281 23.92966 293 ft 98 kts 37°
2026-05-04 18:56 37.93688 23.93353 295 ft 52 kts 37°
2026-05-04 18:57 37.93877 23.93570 281 ft 26 kts 53°
2026-05-04 18:57 37.93936 23.93709 298 ft 11 kts 64°
2026-05-04 18:57 37.93966 23.93796 300 ft 11 kts 68°
2026-05-04 18:57 37.93995 23.93886 303 ft 12 kts 68°
2026-05-04 18:58 37.94045 23.93971 300 ft 13 kts 38°
2026-05-04 18:58 37.94128 23.94050 301 ft 16 kts 37°
2026-05-04 18:58 37.94226 23.94142 301 ft 19 kts 37°
2026-05-04 18:58 37.94338 23.94249 302 ft 21 kts 37°
2026-05-04 18:59 37.94464 23.94368 304 ft 24 kts 36°
2026-05-04 18:59 37.94603 23.94502 302 ft 25 kts 37°
2026-05-04 18:59 37.94681 23.94586 302 ft 12 kts 64°
2026-05-04 18:59 37.94647 23.94691 301 ft 17 kts 128°
2026-05-04 19:00 37.94565 23.94822 301 ft 21 kts 127°
2026-05-04 19:00 37.94475 23.94978 303 ft 23 kts 126°
2026-05-04 19:00 37.94371 23.95154 301 ft 26 kts 127°
2026-05-04 19:00 37.94297 23.95279 302 ft 7 kts 127°
2026-05-04 19:01 37.94259 23.95341 301 ft 10 kts 127°
2026-05-04 19:01 37.94219 23.95408 301 ft 5 kts 127°
2026-05-04 19:01 37.94191 23.95455 302 ft 7 kts 127°
2026-05-04 19:01 37.94166 23.95479 300 ft 5 kts 168°
2026-05-04 19:02 37.94131 23.95455 302 ft 7 kts 216°
2026-05-04 19:02 37.94089 23.95415 300 ft 2 kts 217°
2026-05-04 19:02 37.94088 23.95414 300 ft 0 kts 217°